CAPE
3 0 0 0 0 0 0 0 0 0 0 0 0 0 0 0 0 0 0 3 46 891 519 63 435 685 801 403 353 223 194 20 39 355 331 240 51 29 146 125 118 150 51 0 0
5 3 2 0 0 0 0 0 0 0 0 0 0 0 0 0 0 0 0 535 616 795 106 180 642 858 1002 310 187 99 109 11 46 227 320 251 79 165 263 193 152 50 0 0 0
4 3 2 2 1 0 1 0 0 0 0 0 0 0 0 0 0 0 943 1059 327 698 45 345 747 355 182 281 197 89 92 63 49 231 211 401 149 157 346 235 1 2 0 0 0
4 3 2 1 1 1 0 0 0 0 0 0 0 0 0 0 0 0 1101 856 561 230 0 145 231 40 16 80 177 60 74 8 70 232 218 367 275 283 202 179 69 8 0 0 0
3 2 0 0 1 1 0 0 0 0 0 0 0 0 0 0 0 20 1259 889 215 95 0 143 292 17 18 3 141 93 40 47 255 249 178 478 300 417 321 177 172 3 0 0 0
3 3 3 0 0 0 1 2 1 0 0 0 0 0 0 0 0 0 0 20 0 0 0 10 77 11 16 15 19 47 42 50 240 156 56 234 183 216 403 132 10 40 0 0 0
4 6 5 2 0 0 0 0 0 0 0 0 0 0 0 0 0 0 0 0 0 0 0 6 69 22 10 0 18 43 56 83 77 66 41 24 18 171 127 127 88 68 0 0 0
6 0 2 3 2 1 0 0 0 0 0 0 0 0 0 0 0 0 0 0 0 0 0 1 0 4 0 0 2 5 157 82 95 263 61 31 41 1 16 224 165 14 0 0 0
6 0 0 0 0 0 0 0 0 0 0 0 0 0 0 0 0 0 0 0 0 0 0 0 15 0 0 0 0 0 64 305 147 108 123 7 10 2 6 100 259 182 22 0 1
2 0 0 0 0 0 0 0 0 0 0 0 0 0 0 0 0 0 0 0 0 0 0 0 0 0 0 0 0 0 262 246 120 69 165 0 2 0 15 46 296 299 177 20 5
0 0 0 0 0 0 0 0 0 0 0 0 0 0 0 0 0 0 0 0 0 0 0 0 0 0 0 0 0 0 1 216 92 161 56 13 0 0 29 200 193 380 383 270 97
0 0 0 0 0 0 0 0 0 0 0 0 0 0 0 0 0 0 0 0 0 0 0 0 0 0 0 0 0 0 1 189 141 117 10 3 26 45 46 142 214 329 455 368 254
0 0 0 0 0 0 0 0 0 0 0 0 0 0 0 0 0 0 0 0 0 0 0 0 0 0 0 0 0 0 0 144 180 190 76 62 26 75 32 136 391 318 506 563 463
0 0 0 0 0 0 0 0 0 0 0 0 0 0 0 0 0 0 0 0 0 0 0 0 0 0 0 0 0 0 0 27 72 57 63 109 77 176 59 95 617 198 523 546 579
0 0 0 0 0 0 0 0 0 0 0 0 0 0 0 0 0 0 0 0 0 0 0 0 0 0 0 0 0 0 0 0 65 7 0 144 36 202 191 105 195 413 730 610 528
0 0 0 0 0 0 0 0 0 0 0 0 0 0 0 0 0 0 0 0 0 0 0 0 0 0 0 0 0 0 6 0 7 16 7 1 52 16 223 362 318 410 731 850 755
0 0 0 0 0 0 0 0 0 0 0 0 0 0 0 0 0 0 0 0 0 0 0 0 0 0 0 0 0 0 10 3 4 13 4 30 10 152 361 456 147 258 977 1012 952
0 0 0 0 0 0 0 0 0 0 0 0 0 0 0 0 0 0 0 0 0 0 0 0 0 0 0 0 0 0 0 3 15 6 34 34 15 62 163 117 109 194 409 1015 1009
0 0 0 0 0 0 0 0 0 0 0 0 0 0 0 0 0 0 0 0 0 0 0 0 0 0 0 0 0 0 0 0 8 3 53 44 35 181 146 79 267 396 122 815 983
0 0 0 0 0 0 0 0 0 0 0 0 0 0 0 0 0 0 0 0 0 0 0 0 0 0 0 0 0 0 0 4 17 17 34 33 20 63 95 71 65 257 430 943 662
4 121 3 0 0 0 0 0 1 9 0 0 0 0 0 0 0 0 0 0 0 0 0 0 0 0 0 0 0 0 0 0 0 3 0 5 1 3 22 14 17 98 475 601 337
40 231 91 0 0 0 0 17 11 0 0 0 0 0 0 0 0 0 0 0 0 0 0 0 0 0 0 0 0 0 0 0 0 0 0 5 5 73 1 0 2 2 2 48 298
6 309 48 0 5 4 19 0 0 2 0 0 0 0 0 0 0 0 15 7 1 0 0 0 0 0 0 0 0 0 0 0 0 7 0 3 14 34 34 2 0 28 115 337 460
13 268 110 36 3 2 0 0 0 19 18 1 0 0 0 0 0 0 6 0 0 0 149 0 0 0 0 0 0 0 0 0 0 2 0 0 22 80 19 0 0 12 211 1219 1308
22 4 12 0 0 2 0 0 8 24 1 18 42 2 0 0 0 0 6 15 4 0 0 0 0 0 0 0 0 0 0 0 0 0 0 0 219 603 25 1 252 519 1298 1217 1207
0 0 0 8 7 0 0 0 13 7 0 20 48 10 5 0 0 0 0 0 15 4 0 0 0 0 0 0 0 0 0 0 0 0 0 35 947 806 925 1418 1147 1093 1097 1019 978
0 0 0 0 7 0 0 0 0 0 0 2 26 37 16 5 0 0 0 0 8 8 2 0 2 1 0 4 10 2 0 0 0 349 408 543 1009 733 1069 1119 1012 924 905 867 772
CIN
0 0 0 0 0 0 0 0 0 0 0 0 0 0 0 0 0 0 0 -33 -305 -473 -434 -364 -105 -97 -32 -21 -137 -72 -53 -3 -17 -36 -23 -42 -30 -16 -6 -18 -18 -12 -16 0 0
0 0 0 0 0 0 0 0 0 0 0 0 0 0 0 0 0 0 0 -483 -535 -497 -315 -155 -96 -69 -29 -70 -155 -62 -43 -50 -173 -50 -13 -14 -37 -15 -10 -8 -9 -56 0 0 0
0 0 0 0 0 0 0 0 0 0 0 0 0 0 0 0 0 0 -496 -496 -579 -535 -181 -102 -47 -18 -12 -65 -152 -46 -82 -95 -39 -105 -70 -20 -54 -15 -18 -21 -16 -46 0 0 0
0 0 0 0 0 0 0 0 0 0 0 0 0 0 0 0 0 0 -434 -501 -537 -448 0 -92 -91 -22 -6 -26 -104 -115 -50 -57 -67 -92 -72 -96 -7 -9 -12 -64 -36 -78 0 0 0
0 0 0 0 0 0 0 0 0 0 0 0 0 0 0 0 0 -394 -402 -474 -489 -454 0 -125 -57 -19 -24 -13 -50 -94 -16 -28 -47 -44 -50 -86 -47 -13 -77 -64 -18 -98 0 0 0
0 0 0 0 0 0 0 0 0 0 0 0 0 0 0 0 0 0 0 -184 0 0 0 -21 -63 -26 -22 -7 -13 -33 -10 -34 -44 -19 -6 -80 -36 -19 -11 -35 -63 -49 0 0 0
0 0 0 0 0 0 0 0 0 0 0 0 0 0 0 0 0 0 0 0 0 0 0 -8 -51 -10 -22 0 -3 -7 -34 -75 -113 -54 -38 -75 -56 -4 -20 -52 -32 -49 0 0 0
0 0 0 0 0 0 0 0 0 0 0 0 0 0 0 0 0 0 0 0 0 0 0 -13 -1 -5 0 0 -10 -2 -41 -48 -50 -82 -107 -21 -16 0 -55 -1 -35 -51 0 0 -1
0 0 0 0 0 0 0 0 0 0 0 0 0 0 0 0 0 0 0 0 0 0 0 0 -9 0 0 0 0 0 -19 -95 -138 -146 -218 -121 -2 0 -14 -10 -14 -21 -27 0 -3
0 0 0 0 0 0 0 0 0 0 0 0 0 0 0 0 0 0 0 0 0 0 0 0 0 0 0 0 0 0 -35 -52 -11 -181 -201 0 -26 0 -15 -16 -3 -31 -22 -51 -62
0 0 0 0 0 0 0 0 0 0 0 0 0 0 0 0 0 0 0 0 0 0 0 0 0 0 0 0 0 0 -6 -23 -24 -203 -245 -176 0 0 -193 -10 -38 -37 -31 -40 -84
0 0 0 0 0 0 0 0 0 0 0 0 0 0 0 0 0 0 0 0 0 0 0 0 0 0 0 0 0 0 -1 -10 -11 -237 -244 -285 -314 -63 -108 -29 -43 -28 -29 -61 -27
0 0 0 0 0 0 0 0 0 0 0 0 0 0 0 0 0 0 0 0 0 0 0 0 0 0 0 0 0 0 0 -13 -26 -160 -161 -185 -260 -284 -104 -152 -183 -43 -12 -57 -57
0 0 0 0 0 0 0 0 0 0 0 0 0 0 0 0 0 0 0 0 0 0 0 0 0 0 0 0 0 0 0 -11 -13 -50 -81 -153 -125 -133 -213 -54 -158 -119 -39 -45 -77
0 0 0 0 0 0 0 0 0 0 0 0 0 0 0 0 0 0 0 0 0 0 0 0 0 0 0 0 0 0 0 0 -1 -17 -6 -119 -57 -111 -22 -21 -229 -215 -32 -46 -75
0 0 0 0 0 0 0 0 0 0 0 0 0 0 0 0 0 0 0 0 0 0 0 0 0 0 0 0 0 0 -25 -2 -8 -6 -37 -19 -36 -102 -91 -34 -29 -23 -51 -49 -52
0 0 0 0 0 0 0 0 0 0 0 0 0 0 0 0 0 0 0 0 0 0 0 0 0 0 0 0 0 0 -8 -3 -2 -10 -13 -36 -21 -79 -100 -46 -65 -9 -40 -48 -52
0 0 0 0 0 0 0 0 0 0 0 0 0 0 0 0 0 0 0 0 0 0 0 0 0 0 0 0 0 0 0 -4 0 -43 -27 -36 -30 -45 -85 -63 -255 -38 -21 -33 -44
0 0 0 0 0 0 0 0 0 0 0 0 0 0 0 0 0 0 0 0 0 0 0 0 0 0 0 0 0 0 0 0 -4 -31 -14 -31 -10 -62 -38 -86 -74 -221 -281 -24 -29
0 0 0 0 0 0 0 0 0 0 0 0 0 0 0 0 0 0 0 0 0 0 0 0 0 0 0 0 0 0 0 -3 -6 -3 -15 -3 -8 -13 -14 -11 -38 -5 -37 -44 -80
-12 -151 -42 0 0 0 0 0 -4 -36 0 0 0 0 0 0 0 0 0 0 0 0 0 0 0 0 0 0 0 0 0 -2 0 -7 -6 -33 -5 -56 -2 -6 -11 -8 -21 -9 -5
-66 -55 -42 0 0 0 0 -52 -19 -1 0 0 0 0 0 0 0 0 0 0 0 0 0 0 0 0 0 0 0 0 0 0 0 -1 0 -25 -48 -43 -13 0 -30 -70 0 0 -19
-29 -55 -48 -1 -5 -3 -3 0 -11 -23 0 0 0 0 0 0 0 0 -43 -65 -63 0 0 0 0 0 0 0 0 0 0 0 0 -9 0 -25 -26 -28 -36 -17 0 -58 -84 -102 -161
-22 -12 -27 -22 -53 -15 0 0 0 -12 -23 -29 0 0 0 0 0 0 -9 -2 -6 0 -152 -34 0 0 0 0 0 0 0 0 0 -4 0 0 -35 -2 -7 0 0 -103 -35 -119 -200
-137 -4 -60 0 0 -3 0 0 -37 -58 -51 -108 -84 -57 0 0 0 0 -21 -59 -35 -13 0 0 0 0 0 0 0 0 0 0 -1 0 0 0 -65 -132 -35 -45 -54 -51 -76 -148 -193
0 0 0 -23 -13 0 0 0 -61 -81 0 -132 -98 -118 -156 0 0 0 0 0 -45 -39 0 0 0 -18 0 0 0 0 0 0 0 0 0 -32 -146 -157 -85 -129 -84 -92 -32 -80 -159
0 0 0 0 -12 0 0 0 0 0 0 -156 -143 -115 -32 -85 0 0 0 0 -86 -105 -59 0 -16 -20 0 -16 -12 -2 0 0 0 -167 -113 -145 -78 -149 -138 -95 -63 -90 -49 -69 -237
Wind_Speed
nan nan nan nan nan nan nan nan nan nan nan nan nan nan nan nan nan nan nan nan nan 6 7 nan 12 20 14 10 11 7 11 nan nan 15 11 9 nan nan 5 15 13 12 nan nan nan
nan nan nan nan nan nan nan nan nan nan nan nan nan nan nan nan nan nan nan 10 12 5 6 3 12 14 17 5 4 nan 10 nan nan 25 11 10 nan 12 8 11 16 nan nan nan nan
nan nan nan nan nan nan nan nan nan nan nan nan nan nan nan nan nan nan 15 12 10 2 nan 12 15 16 16 8 11 nan nan nan nan 16 15 16 8 4 14 7 nan nan nan nan nan
nan nan nan nan nan nan nan nan nan nan nan nan nan nan nan nan nan nan 13 12 9 7 nan 22 16 nan nan nan 6 nan nan nan nan 18 3 23 21 13 11 8 nan nan nan nan nan
nan nan nan nan nan nan nan nan nan nan nan nan nan nan nan nan nan nan 15 14 15 nan nan 18 23 nan nan nan 5 nan nan nan 18 20 21 28 28 20 18 15 25 nan nan nan nan
nan nan nan nan nan nan nan nan nan nan nan nan nan nan nan nan nan nan nan nan nan nan nan nan nan nan nan nan nan nan nan nan 26 19 nan 24 8 31 8 13 nan nan nan nan nan
nan nan nan nan nan nan nan nan nan nan nan nan nan nan nan nan nan nan nan nan nan nan nan nan nan nan nan nan nan nan nan nan nan nan nan nan nan 30 22 5 nan nan nan nan nan
nan nan nan nan nan nan nan nan nan nan nan nan nan nan nan nan nan nan nan nan nan nan nan nan nan nan nan nan nan nan 10 nan nan 30 nan nan nan nan nan 34 12 nan nan nan nan
nan nan nan nan nan nan nan nan nan nan nan nan nan nan nan nan nan nan nan nan nan nan nan nan nan nan nan nan nan nan nan 15 18 30 22 nan nan nan nan 14 8 7 nan nan nan
nan nan nan nan nan nan nan nan nan nan nan nan nan nan nan nan nan nan nan nan nan nan nan nan nan nan nan nan nan nan 16 16 24 nan 38 nan nan nan nan nan 16 7 4 nan nan
nan nan nan nan nan nan nan nan nan nan nan nan nan nan nan nan nan nan nan nan nan nan nan nan nan nan nan nan nan nan nan 19 nan 29 nan nan nan nan nan 22 13 14 10 2 nan
nan nan nan nan nan nan nan nan nan nan nan nan nan nan nan nan nan nan nan nan nan nan nan nan nan nan nan nan nan nan nan 20 17 36 nan nan nan nan nan 18 19 22 14 12 6
nan nan nan nan nan nan nan nan nan nan nan nan nan nan nan nan nan nan nan nan nan nan nan nan nan nan nan nan nan nan nan 24 19 25 nan nan nan nan nan 8 16 27 26 16 14
nan nan nan nan nan nan nan nan nan nan nan nan nan nan nan nan nan nan nan nan nan nan nan nan nan nan nan nan nan nan nan nan nan nan nan 19 nan 7 nan nan 21 29 26 22 20
nan nan nan nan nan nan nan nan nan nan nan nan nan nan nan nan nan nan nan nan nan nan nan nan nan nan nan nan nan nan nan nan nan nan nan 8 nan 6 8 16 25 30 30 25 23
nan nan nan nan nan nan nan nan nan nan nan nan nan nan nan nan nan nan nan nan nan nan nan nan nan nan nan nan nan nan nan nan nan nan nan nan nan nan 17 11 21 23 28 21 19
nan nan nan nan nan nan nan nan nan nan nan nan nan nan nan nan nan nan nan nan nan nan nan nan nan nan nan nan nan nan nan nan nan nan nan nan nan 25 27 22 15 12 18 13 15
nan nan nan nan nan nan nan nan nan nan nan nan nan nan nan nan nan nan nan nan nan nan nan nan nan nan nan nan nan nan nan nan nan nan nan nan nan nan 25 39 22 22 8 18 15
nan nan nan nan nan nan nan nan nan nan nan nan nan nan nan nan nan nan nan nan nan nan nan nan nan nan nan nan nan nan nan nan nan nan nan nan nan 21 31 nan 30 39 8 19 27
nan nan nan nan nan nan nan nan nan nan nan nan nan nan nan nan nan nan nan nan nan nan nan nan nan nan nan nan nan nan nan nan nan nan nan nan nan nan nan nan nan 27 31 33 35
nan 10 nan nan nan nan nan nan nan nan nan nan nan nan nan nan nan nan nan nan nan nan nan nan nan nan nan nan nan nan nan nan nan nan nan nan nan nan nan nan nan nan 26 18 26
nan 13 nan nan nan nan nan nan nan nan nan nan nan nan nan nan nan nan nan nan nan nan nan nan nan nan nan nan nan nan nan nan nan nan nan nan nan nan nan nan nan nan nan nan 31
nan 15 nan nan nan nan nan nan nan nan nan nan nan nan nan nan nan nan nan nan nan nan nan nan nan nan nan nan nan nan nan nan nan nan nan nan nan nan nan nan nan nan 52 45 55
nan 14 12 nan nan nan nan nan nan nan nan nan nan nan nan nan nan nan nan nan nan nan 45 nan nan nan nan nan nan nan nan nan nan nan nan nan nan nan nan nan nan nan 36 56 61
nan nan nan nan nan nan nan nan nan nan nan nan nan nan nan nan nan nan nan nan nan nan nan nan nan nan nan nan nan nan nan nan nan nan nan nan 44 38 nan nan 35 43 59 50 53
nan nan nan nan nan nan nan nan nan nan nan nan nan nan nan nan nan nan nan nan nan nan nan nan nan nan nan nan nan nan nan nan nan nan nan nan 51 42 59 65 72 53 59 45 47
nan nan nan nan nan nan nan nan nan nan nan nan nan nan nan nan nan nan nan nan nan nan nan nan nan nan nan nan nan nan nan nan nan 64 50 57 58 56 56 58 58 47 45 48 40
Wind_Direction
nan nan nan nan nan nan nan nan nan nan nan nan nan nan nan nan nan nan nan nan nan 15 147 nan 95 81 112 175 4 271 245 nan nan 203 191 263 nan nan 305 314 342 25 nan nan nan
nan nan nan nan nan nan nan nan nan nan nan nan nan nan nan nan nan nan nan 266 277 345 154 67 86 96 134 113 133 nan 291 nan nan 161 141 249 nan 282 300 299 288 nan nan nan nan
nan nan nan nan nan nan nan nan nan nan nan nan nan nan nan nan nan nan 236 260 284 350 nan 115 110 140 113 165 35 nan nan nan nan 15 136 156 253 306 258 265 nan nan nan nan nan
nan nan nan nan nan nan nan nan nan nan nan nan nan nan nan nan nan nan 243 255 243 180 nan 148 153 nan nan nan 42 nan nan nan nan 308 261 179 152 229 284 260 nan nan nan nan nan
nan nan nan nan nan nan nan nan nan nan nan nan nan nan nan nan nan nan 252 239 232 nan nan 144 154 nan nan nan 281 nan nan nan 314 295 264 256 158 185 266 269 302 nan nan nan nan
nan nan nan nan nan nan nan nan nan nan nan nan nan nan nan nan nan nan nan nan nan nan nan nan nan nan nan nan nan nan nan nan 251 215 nan 268 226 192 246 272 nan nan nan nan nan
nan nan nan nan nan nan nan nan nan nan nan nan nan nan nan nan nan nan nan nan nan nan nan nan nan nan nan nan nan nan nan nan nan nan nan nan nan 185 196 253 nan nan nan nan nan
nan nan nan nan nan nan nan nan nan nan nan nan nan nan nan nan nan nan nan nan nan nan nan nan nan nan nan nan nan nan 159 nan nan 280 nan nan nan nan nan 148 253 nan nan nan nan
nan nan nan nan nan nan nan nan nan nan nan nan nan nan nan nan nan nan nan nan nan nan nan nan nan nan nan nan nan nan nan 274 284 260 254 nan nan nan nan 226 195 303 nan nan nan
nan nan nan nan nan nan nan nan nan nan nan nan nan nan nan nan nan nan nan nan nan nan nan nan nan nan nan nan nan nan 262 262 295 nan 299 nan nan nan nan nan 154 343 22 nan nan
nan nan nan nan nan nan nan nan nan nan nan nan nan nan nan nan nan nan nan nan nan nan nan nan nan nan nan nan nan nan nan 309 nan 322 nan nan nan nan nan 132 192 80 15 14 nan
nan nan nan nan nan nan nan nan nan nan nan nan nan nan nan nan nan nan nan nan nan nan nan nan nan nan nan nan nan nan nan 279 296 337 nan nan nan nan nan 144 166 138 58 12 339
nan nan nan nan nan nan nan nan nan nan nan nan nan nan nan nan nan nan nan nan nan nan nan nan nan nan nan nan nan nan nan 268 308 323 nan nan nan nan nan 217 157 93 87 28 356
nan nan nan nan nan nan nan nan nan nan nan nan nan nan nan nan nan nan nan nan nan nan nan nan nan nan nan nan nan nan nan nan nan nan nan 14 nan 41 nan nan 58 66 67 29 0
nan nan nan nan nan nan nan nan nan nan nan nan nan nan nan nan nan nan nan nan nan nan nan nan nan nan nan nan nan nan nan nan nan nan nan 38 nan 8 337 340 32 54 62 24 11
nan nan nan nan nan nan nan nan nan nan nan nan nan nan nan nan nan nan nan nan nan nan nan nan nan nan nan nan nan nan nan nan nan nan nan nan nan nan 321 355 350 30 27 9 357
nan nan nan nan nan nan nan nan nan nan nan nan nan nan nan nan nan nan nan nan nan nan nan nan nan nan nan nan nan nan nan nan nan nan nan nan nan 291 334 343 310 189 352 360 342
nan nan nan nan nan nan nan nan nan nan nan nan nan nan nan nan nan nan nan nan nan nan nan nan nan nan nan nan nan nan nan nan nan nan nan nan nan nan 328 307 306 339 310 335 326
nan nan nan nan nan nan nan nan nan nan nan nan nan nan nan nan nan nan nan nan nan nan nan nan nan nan nan nan nan nan nan nan nan nan nan nan nan 244 274 nan 280 303 233 312 286
nan nan nan nan nan nan nan nan nan nan nan nan nan nan nan nan nan nan nan nan nan nan nan nan nan nan nan nan nan nan nan nan nan nan nan nan nan nan nan nan nan 326 3 308 309
nan 354 nan nan nan nan nan nan nan nan nan nan nan nan nan nan nan nan nan nan nan nan nan nan nan nan nan nan nan nan nan nan nan nan nan nan nan nan nan nan nan nan 250 220 228
nan 308 nan nan nan nan nan nan nan nan nan nan nan nan nan nan nan nan nan nan nan nan nan nan nan nan nan nan nan nan nan nan nan nan nan nan nan nan nan nan nan nan nan nan 234
nan 320 nan nan nan nan nan nan nan nan nan nan nan nan nan nan nan nan nan nan nan nan nan nan nan nan nan nan nan nan nan nan nan nan nan nan nan nan nan nan nan nan 215 222 232
nan 320 289 nan nan nan nan nan nan nan nan nan nan nan nan nan nan nan nan nan nan nan 210 nan nan nan nan nan nan nan nan nan nan nan nan nan nan nan nan nan nan nan 223 217 228
nan nan nan nan nan nan nan nan nan nan nan nan nan nan nan nan nan nan nan nan nan nan nan nan nan nan nan nan nan nan nan nan nan nan nan nan 220 216 nan nan 243 254 236 222 226
nan nan nan nan nan nan nan nan nan nan nan nan nan nan nan nan nan nan nan nan nan nan nan nan nan nan nan nan nan nan nan nan nan nan nan nan 225 220 251 223 237 231 222 236 223
nan nan nan nan nan nan nan nan nan nan nan nan nan nan nan nan nan nan nan nan nan nan nan nan nan nan nan nan nan nan nan nan nan 219 217 223 228 217 240 240 246 250 238 235 223